Detroit Lakes, MN

6:32 PM CST on January 20, 2017 (GMT -0600)
Detroit Lakes

Weather History for KDTL - January, 2014

Change the Weather History Date:

Saturday, January 11, 2014

  Actual Average Record
Temperature  
Mean Temperature 22 °F -  
Max Temperature 28 °F 15 °F 44 °F (1992)
Min Temperature 17 °F -7 °F -38 °F (1977)
Degree Days  
Heating Degree Days 42    
Moisture  
Dew Point 22 °F    
Average Humidity 95    
Maximum Humidity 100    
Minimum Humidity 80    
Precipitation  
Precipitation 0.00 in - - ()
Sea Level Pressure  
Sea Level Pressure 29.55 in    
Wind  
Wind Speed 10 mph (West)    
Max Wind Speed 18 mph    
Max Gust Speed 25 mph    
Visibility 7 miles    
Events Fog    
Averages and records for this station are not official NWS values.
T = Trace of Precipitation, MM = Missing Value Source: NWS Daily Summary

Daily Weather History Graph

Daily Weather History Graph

Search for Another Location

Airport or City:

Trip Planner

Search our weather history database for the weather conditions in past years. The results will help you decide how hot, cold, wet, or windy it might be!

Date:

Astronomy

Jan. 11, 2014 Rise Set
Actual Time 8:06 AM CST 4:57 PM CST
Civil Twilight 7:31 AM CST 5:31 PM CST
Nautical Twilight 6:54 AM CST 6:09 PM CST
Astronomical Twilight 6:17 AM CST 6:45 PM CST
Moon 1:44 PM CST (1/11) 4:08 AM CST (1/11)
Length of Visible Light 9h 59m
Length of Day
8h 50m
Waxing Gibbous, 83% of the Moon is Illuminated
Jan 11
Waxing Gibbous
Jan 15
Full
Jan 23
Last Quarter
Jan 30
New
Feb 6
First Quarter

Hourly Weather History & Observations

Time (CST) Temp. Windchill Dew Point Humidity Pressure Visibility Wind Dir Wind Speed Gust Speed Precip Events Conditions
12:15 AM 24.8 °F 16.9 °F 23.0 °F 93% 29.44 in 10.0 mi West 6.9 mph - N/A   Overcast
12:35 AM 24.8 °F 16.9 °F 24.8 °F 100% 29.44 in 10.0 mi WNW 6.9 mph - N/A   Overcast
12:55 AM 26.6 °F 19.1 °F 24.8 °F 93% 29.44 in 10.0 mi WNW 6.9 mph - N/A   Overcast
1:15 AM 26.6 °F 19.1 °F 26.6 °F 100% 29.44 in 10.0 mi WNW 6.9 mph - N/A   Overcast
1:34 AM 26.6 °F 17.5 °F 26.6 °F 100% 29.44 in 10.0 mi WNW 9.2 mph - N/A   Overcast
1:55 AM 28.4 °F 18.0 °F 26.6 °F 93% 29.45 in 10.0 mi WNW 12.7 mph - N/A   Overcast
2:15 AM 26.6 °F 15.2 °F 26.6 °F 100% 29.46 in 10.0 mi WNW 13.8 mph - N/A   Overcast
2:35 AM 26.6 °F 14.3 °F 26.6 °F 100% 29.47 in 5.0 mi NW 16.1 mph 21.9 mph N/A   Overcast
2:55 AM 26.6 °F 13.4 °F 26.6 °F 100% 29.47 in 2.0 mi NW 18.4 mph 23.0 mph N/A   Overcast
3:14 AM 26.6 °F 14.3 °F 26.6 °F 100% 29.49 in 2.0 mi NW 16.1 mph 20.7 mph N/A   Overcast
3:35 AM 24.8 °F 11.5 °F 24.8 °F 100% 29.49 in 2.5 mi NW 17.3 mph 25.3 mph N/A   Overcast
3:55 AM 23.0 °F 9.2 °F 23.0 °F 100% 29.50 in 5.0 mi NW 17.3 mph 21.9 mph N/A   Overcast
4:14 AM 23.0 °F 8.7 °F 23.0 °F 100% 29.51 in 7.0 mi NNW 18.4 mph 23.0 mph N/A   Overcast
4:35 AM 23.0 °F 9.6 °F 23.0 °F 100% 29.51 in 2.5 mi NNW 16.1 mph 21.9 mph N/A   Overcast
4:55 AM 23.0 °F 10.1 °F 23.0 °F 100% 29.51 in 3.0 mi NW 15.0 mph - N/A   Overcast
5:14 AM 23.0 °F 8.7 °F 23.0 °F 100% 29.52 in 5.0 mi NW 18.4 mph 23.0 mph N/A   Overcast
5:35 AM 23.0 °F 9.2 °F 23.0 °F 100% 29.53 in 4.0 mi NNW 17.3 mph 21.9 mph N/A   Overcast
5:55 AM 23.0 °F 9.6 °F 21.2 °F 93% 29.54 in 7.0 mi NNW 16.1 mph 21.9 mph N/A   Overcast
6:14 AM 23.0 °F 10.6 °F 21.2 °F 93% 29.54 in 7.0 mi NW 13.8 mph - N/A   Overcast
6:35 AM 23.0 °F 9.6 °F 21.2 °F 93% 29.56 in 7.0 mi NNW 16.1 mph - N/A   Overcast
6:55 AM 23.0 °F 10.6 °F 21.2 °F 93% 29.56 in 7.0 mi NNW 13.8 mph - N/A   Overcast
7:15 AM 21.2 °F 8.3 °F 21.2 °F 100% 29.56 in 7.0 mi NNW 13.8 mph - N/A   Overcast
7:35 AM 21.2 °F 8.3 °F 21.2 °F 100% 29.57 in 7.0 mi NW 13.8 mph - N/A   Overcast
7:55 AM 21.2 °F 7.3 °F 21.2 °F 100% 29.57 in 7.0 mi NNW 16.1 mph - N/A   Overcast
8:15 AM 21.2 °F 8.9 °F 21.2 °F 100% 29.58 in 7.0 mi NNW 12.7 mph - N/A   Overcast
8:35 AM 21.2 °F 8.9 °F 21.2 °F 100% 29.59 in 7.0 mi NNW 12.7 mph 18.4 mph N/A   Overcast
8:55 AM 21.2 °F 9.5 °F 21.2 °F 100% 29.59 in 7.0 mi NW 11.5 mph - N/A   Overcast
9:15 AM 23.0 °F 11.1 °F 21.2 °F 93% 29.60 in 7.0 mi NW 12.7 mph - N/A   Overcast
9:34 AM 23.0 °F 11.7 °F 21.2 °F 93% 29.61 in 5.0 mi NW 11.5 mph - N/A   Overcast
9:55 AM 23.0 °F 9.6 °F 23.0 °F 100% 29.62 in 5.0 mi NW 16.1 mph - N/A   Overcast
10:14 AM 23.0 °F 11.7 °F 23.0 °F 100% 29.62 in 3.0 mi NW 11.5 mph 17.3 mph N/A   Overcast
10:35 AM 23.0 °F 13.9 °F 23.0 °F 100% 29.62 in 1.2 mi NW 8.1 mph - N/A   Overcast
10:55 AM 23.0 °F 14.7 °F 23.0 °F 100% 29.63 in 0.2 mi West 6.9 mph - N/A Fog Light Freezing Fog
11:14 AM 23.0 °F 15.8 °F 23.0 °F 100% 29.63 in 1.5 mi West 5.8 mph - N/A   Overcast
11:35 AM 23.0 °F 13.9 °F 23.0 °F 100% 29.63 in 5.0 mi West 8.1 mph - N/A   Overcast
11:55 AM 24.8 °F 16.9 °F 23.0 °F 93% 29.62 in 7.0 mi West 6.9 mph - N/A   Overcast
12:15 PM 24.8 °F 16.1 °F 24.8 °F 100% 29.61 in 10.0 mi West 8.1 mph - N/A   Mostly Cloudy
12:35 PM 26.6 °F 19.1 °F 23.0 °F 86% 29.59 in 10.0 mi West 6.9 mph - N/A   Scattered Clouds
12:55 PM 26.6 °F 16.8 °F 23.0 °F 86% 29.59 in 10.0 mi West 10.4 mph - N/A   Clear
1:15 PM 28.4 °F 21.2 °F 23.0 °F 80% 29.58 in 10.0 mi West 6.9 mph - N/A   Clear
1:35 PM 28.4 °F 18.5 °F 23.0 °F 80% 29.57 in 10.0 mi West 11.5 mph - N/A   Clear
1:55 PM 28.4 °F 21.2 °F 23.0 °F 80% 29.57 in 10.0 mi West 6.9 mph - N/A   Clear
2:15 PM 28.4 °F 20.4 °F 23.0 °F 80% 29.57 in 10.0 mi WNW 8.1 mph - N/A   Clear
2:35 PM 28.4 °F 19.7 °F 23.0 °F 80% 29.57 in 10.0 mi WNW 9.2 mph - N/A   Clear
2:55 PM 28.4 °F 21.2 °F 23.0 °F 80% 29.57 in 10.0 mi West 6.9 mph - N/A   Clear
3:15 PM 28.4 °F 22.2 °F 23.0 °F 80% 29.58 in 10.0 mi West 5.8 mph - N/A   Clear
3:35 PM 26.6 °F 20.0 °F 23.0 °F 86% 29.58 in 10.0 mi SW 5.8 mph - N/A   Clear
3:55 PM 26.6 °F 20.0 °F 23.0 °F 86% 29.58 in 10.0 mi WSW 5.8 mph - N/A   Clear
4:15 PM 26.6 °F 20.0 °F 23.0 °F 86% 29.59 in 10.0 mi SW 5.8 mph - N/A   Mostly Cloudy
4:35 PM 26.6 °F 19.1 °F 23.0 °F 86% 29.59 in 10.0 mi WSW 6.9 mph - N/A   Overcast
4:55 PM 24.8 °F 16.9 °F 21.2 °F 86% 29.61 in 10.0 mi WSW 6.9 mph - N/A   Scattered Clouds
5:14 PM 23.0 °F 17.0 °F 21.2 °F 93% 29.60 in 10.0 mi WSW 4.6 mph - N/A   Clear
5:35 PM 23.0 °F - 21.2 °F 93% 29.59 in 10.0 mi Calm Calm - N/A   Clear
5:55 PM 23.0 °F 17.0 °F 21.2 °F 93% 29.59 in 10.0 mi SW 4.6 mph - N/A   Clear
6:14 PM 23.0 °F 18.4 °F 21.2 °F 93% 29.59 in 10.0 mi WSW 3.5 mph - N/A   Clear
6:35 PM 23.0 °F - 21.2 °F 93% 29.58 in 10.0 mi Calm Calm - N/A   Clear
6:55 PM 21.2 °F - 19.4 °F 93% 29.57 in 10.0 mi Calm Calm - N/A   Clear
7:14 PM 17.6 °F 10.7 °F 15.8 °F 93% 29.58 in 4.0 mi South 4.6 mph - N/A   Clear
7:35 PM 19.4 °F 14.3 °F 19.4 °F 100% 29.57 in 5.0 mi South 3.5 mph - N/A   Clear
7:55 PM 19.4 °F 14.3 °F 19.4 °F 100% 29.56 in 3.0 mi SSE 3.5 mph - N/A   Clear
8:14 PM 19.4 °F 11.5 °F 19.4 °F 100% 29.55 in 5.0 mi SSE 5.8 mph - N/A   Clear
8:35 PM 19.4 °F 11.5 °F 17.6 °F 93% 29.54 in 4.0 mi SSE 5.8 mph - N/A   Clear
8:54 PM 19.4 °F 12.8 °F 19.4 °F 100% 29.53 in 5.0 mi SSE 4.6 mph - N/A   Clear
9:15 PM 19.4 °F 12.8 °F 17.6 °F 93% 29.54 in 5.0 mi South 4.6 mph - N/A   Clear
9:34 PM 19.4 °F 12.8 °F 19.4 °F 100% 29.52 in 7.0 mi SSE 4.6 mph - N/A   Clear
9:55 PM 21.2 °F 13.6 °F 19.4 °F 93% 29.51 in 7.0 mi SSE 5.8 mph - N/A   Clear
10:15 PM 21.2 °F 12.6 °F 21.2 °F 100% 29.49 in 7.0 mi SE 6.9 mph - N/A   Clear
10:35 PM 21.2 °F 11.7 °F 21.2 °F 100% 29.49 in 7.0 mi SSE 8.1 mph - N/A   Clear
10:55 PM 23.0 °F 13.1 °F 23.0 °F 100% 29.48 in 10.0 mi SSE 9.2 mph - N/A   Scattered Clouds
11:15 PM 23.0 °F 13.1 °F 23.0 °F 100% 29.46 in 10.0 mi SSE 9.2 mph - N/A   Scattered Clouds
11:35 PM 23.0 °F 13.9 °F 23.0 °F 100% 29.46 in 10.0 mi SSE 8.1 mph - N/A   Scattered Clouds
11:55 PM 23.0 °F 14.7 °F 23.0 °F 100% 29.45 in 10.0 mi SSE 6.9 mph - N/A   Clear